Meath Environmental Platform

Observations for Trim Market St

Time AQI Temp °C Hum % Pres Pa CO μg/m³ H₂S μg/m³ NO μg/m³ NO₂ μg/m³ O₃ μg/m³ SO₂ μg/m³ PM1 μg/m³ PM2.5 μg/m³ PM10 μg/m³
Friday 10 July 2026
00:51 1 20 71 50,595 0 0 0 6.65 12.3 0 2.14 3.47 5.67
00:50 1 20 71 50,773 0 0 0 8.36 12.19 0 3.56 4.93 7.53
00:49 1 20.1 71 51,050 0 0 0 6.43 13.04 0 2.14 3.96 6.29
00:47 1 20.1 71 51,471 0 0 0 6.15 12.91 0 2.14 3.97 7.53
00:46 1 20.1 71 51,600 0 0 0 7.06 9.59 0 2.14 4.46 7.53
00:45 1 20.1 71 51,772 0 0 0 6.26 12.26 0 2.14 3.49 6.29
00:44 1 20.2 71 51,927 0 0 0 7.04 10.59 0 2.14 4.46 6.91
00:43 1 20.2 71 52,109 0 0 0 5.14 14.52 0 2.85 3.98 6.91
00:33 1 20.4 71 52,861 0 0 0 7.43 8.88 0 2.14 3.51 5.66
00:32 1 20.4 70 52,946 0 0 0 7.34 6.68 0 2.14 3.03 5.03
00:31 1 20.4 70 53,038 0 0 0 9.14 5.99 0 2.14 4 6.28
00:30 1 20.4 70 53,115 0 0 0 8.94 4.97 0 2.85 4.97 7.53
00:26 1 20.5 70 53,335 0 0 0 7.54 6.46 0 3.56 5.47 8.16
00:25 1 20.5 70 53,348 0 0 0 6.14 8.12 0 2.85 4.01 6.91
00:24 1 20.5 70 53,353 0 0 0 8.35 8.41 0 2.14 3.53 6.28
00:23 1 20.6 70 53,395 0 0 0 8.81 7.54 0 2.14 3.53 5.66
00:22 1 20.6 70 53,418 0 0 0 7.72 10.84 0 2.14 3.04 5.65
00:21 1 20.6 70 53,387 0 0 0 8.32 8.12 0 2.85 3.53 6.28
00:20 1 20.6 70 53,358 0 0 0 7.72 8.06 0 2.14 3.53 5.65
00:19 1 20.6 70 53,301 0 0 0 5.72 7.94 0 1.43 3.53 5.65